TAP1939 LPPR-LPPT

Flight info

Callsign TAP1939
Flight time N/A
Altitude 21000
Route MANIK DCT ABRIL DCT XAMAX
Aircraft A320/M-SDE3FGHIJ1RWXYZ/LB1

Departure

Time 2026-04-30 22:27
Airport Francisco de Sá Carneiro Airport (LPPR)

Arrival

Time N/A
Airport Lisbon Humberto Delgado Airport (LPPT)
Time Latitude Longitude Altitude Speed Heading
2026-04-30 21:50 41.23733 -8.67262 237 ft 0 kts 69°
2026-04-30 22:13 41.23732 -8.67263 237 ft 1 kts 69°
2026-04-30 22:14 41.23727 -8.67281 237 ft 3 kts 62°
2026-04-30 22:14 41.23716 -8.67304 237 ft 3 kts 50°
2026-04-30 22:14 41.23702 -8.67323 237 ft 3 kts 36°
2026-04-30 22:14 41.23685 -8.67336 237 ft 3 kts 18°
2026-04-30 22:15 41.23667 -8.67341 237 ft 2 kts 352°
2026-04-30 22:15 41.23663 -8.67340 237 ft 0 kts 348°
2026-04-30 22:19 41.23664 -8.67340 237 ft 1 kts 348°
2026-04-30 22:19 41.23731 -8.67415 237 ft 6 kts 306°
2026-04-30 22:20 41.23759 -8.67451 237 ft 5 kts 328°
2026-04-30 22:20 41.23824 -8.67476 237 ft 6 kts 349°
2026-04-30 22:20 41.23883 -8.67491 237 ft 12 kts 348°
2026-04-30 22:21 41.23958 -8.67511 237 ft 10 kts 349°
2026-04-30 22:21 41.24024 -8.67528 237 ft 9 kts 349°
2026-04-30 22:21 41.24081 -8.67543 237 ft 8 kts 349°
2026-04-30 22:21 41.24131 -8.67556 237 ft 7 kts 349°
2026-04-30 22:22 41.24173 -8.67567 236 ft 6 kts 349°
2026-04-30 22:22 41.24241 -8.67609 237 ft 16 kts 316°
2026-04-30 22:22 41.24345 -8.67718 225 ft 21 kts 345°
2026-04-30 22:22 41.24460 -8.67748 218 ft 19 kts 348°
2026-04-30 22:23 41.24579 -8.67781 215 ft 18 kts 349°
2026-04-30 22:23 41.24717 -8.67818 209 ft 20 kts 347°
2026-04-30 22:23 41.24815 -8.67863 196 ft 18 kts 336°
2026-04-30 22:23 41.24938 -8.67928 194 ft 16 kts 345°
2026-04-30 22:24 41.25065 -8.67965 194 ft 21 kts 348°
2026-04-30 22:24 41.25220 -8.68005 180 ft 21 kts 348°
2026-04-30 22:24 41.25381 -8.68047 174 ft 26 kts 349°
2026-04-30 22:24 41.25531 -8.68086 166 ft 16 kts 348°
2026-04-30 22:25 41.25637 -8.68122 165 ft 14 kts 333°
2026-04-30 22:25 41.25669 -8.68176 166 ft 5 kts 288°
2026-04-30 22:25 41.25672 -8.68210 166 ft 3 kts 270°
2026-04-30 22:25 41.25670 -8.68242 167 ft 8 kts 262°
2026-04-30 22:26 41.25584 -8.68328 168 ft 0 kts 171°
2026-04-30 22:26 41.25440 -8.68295 171 ft 59 kts 169°
2026-04-30 22:26 41.24810 -8.68126 195 ft 122 kts 169°
2026-04-30 22:27 41.23811 -8.67865 310 ft 162 kts 169°
2026-04-30 22:27 41.22735 -8.67612 1079 ft 154 kts 170°
2026-04-30 22:27 41.20564 -8.67054 2196 ft 177 kts 168°
2026-04-30 22:28 41.17902 -8.66328 3035 ft 215 kts 169°
2026-04-30 22:28 41.16354 -8.65918 3495 ft 239 kts 169°
2026-04-30 22:29 41.11681 -8.64685 5666 ft 264 kts 169°
2026-04-30 22:29 41.09876 -8.64208 6646 ft 266 kts 168°
2026-04-30 22:30 41.02292 -8.63364 10174 ft 283 kts 179°
2026-04-30 22:31 40.95783 -8.63029 11552 ft 334 kts 179°
2026-04-30 22:32 40.88679 -8.62642 13856 ft 347 kts 179°
2026-04-30 22:32 40.83812 -8.62378 15236 ft 353 kts 179°
2026-04-30 22:33 40.76370 -8.61993 17320 ft 361 kts 179°
2026-04-30 22:33 40.71317 -8.61728 18635 ft 366 kts 179°
2026-04-30 22:34 40.63644 -8.61063 20373 ft 374 kts 176°
2026-04-30 22:35 40.58437 -8.60352 21116 ft 378 kts 176°
2026-04-30 22:36 40.47914 -8.59016 21169 ft 380 kts 176°
2026-04-30 22:36 40.45278 -8.58705 21166 ft 380 kts 176°
2026-04-30 22:37 40.37377 -8.57773 21169 ft 380 kts 176°
2026-04-30 22:37 40.34744 -8.57456 21167 ft 380 kts 176°
2026-04-30 22:37 40.29482 -8.56810 21169 ft 380 kts 176°
2026-04-30 22:38 40.24219 -8.56166 21168 ft 380 kts 176°
2026-04-30 22:38 40.18958 -8.55524 21165 ft 379 kts 176°
2026-04-30 22:39 40.16331 -8.55206 21164 ft 379 kts 176°
2026-04-30 22:39 40.08439 -8.54262 21153 ft 380 kts 176°
2026-04-30 22:40 40.00538 -8.53350 21157 ft 380 kts 178°
2026-04-30 22:41 39.92619 -8.52716 21143 ft 380 kts 179°
2026-04-30 22:41 39.87404 -8.52306 21171 ft 361 kts 178°
2026-04-30 22:42 39.78155 -8.51551 20887 ft 317 kts 182°
2026-04-30 22:43 39.73935 -8.52648 20377 ft 308 kts 205°
2026-04-30 22:43 39.70134 -8.55165 19848 ft 307 kts 208°
2026-04-30 22:44 39.66339 -8.57694 19038 ft 307 kts 208°
2026-04-30 22:45 39.58850 -8.62679 17740 ft 297 kts 208°
2026-04-30 22:45 39.55162 -8.65125 16896 ft 299 kts 208°
2026-04-30 22:46 39.51438 -8.67602 16030 ft 303 kts 208°
2026-04-30 22:47 39.43879 -8.72610 14381 ft 307 kts 208°
2026-04-30 22:47 39.40075 -8.75132 13535 ft 307 kts 208°
2026-04-30 22:48 39.36304 -8.77626 12783 ft 297 kts 208°
2026-04-30 22:49 39.31143 -8.81033 11730 ft 263 kts 208°
2026-04-30 22:49 39.26488 -8.84106 10708 ft 241 kts 208°
2026-04-30 22:50 39.20385 -8.88116 9296 ft 247 kts 207°
2026-04-30 22:51 39.17323 -8.90127 8587 ft 247 kts 207°
2026-04-30 22:51 39.14275 -8.92129 7884 ft 245 kts 206°
2026-04-30 22:52 39.12759 -8.93119 7538 ft 244 kts 206°
2026-04-30 22:52 39.09753 -8.95085 6859 ft 241 kts 205°
2026-04-30 22:53 39.06777 -8.97035 6158 ft 238 kts 205°
2026-04-30 22:53 39.03837 -8.98962 5453 ft 236 kts 205°
2026-04-30 22:53 39.02400 -8.99902 5099 ft 234 kts 205°
2026-04-30 22:54 38.99563 -9.01937 4395 ft 233 kts 208°
2026-04-30 22:55 38.95284 -9.04390 3771 ft 216 kts 202°
2026-04-30 22:55 38.92518 -9.05876 3212 ft 213 kts 203°
2026-04-30 22:56 38.89912 -9.07275 2683 ft 192 kts 204°
2026-04-30 22:56 38.86613 -9.09045 1975 ft 152 kts 205°
2026-04-30 22:57 38.84712 -9.10066 1564 ft 146 kts 205°
2026-04-30 22:57 38.82844 -9.11068 1155 ft 145 kts 204°
2026-04-30 22:58 38.81003 -9.12052 766 ft 142 kts 203°
2026-04-30 22:59 38.78323 -9.13498 368 ft 121 kts 201°
2026-04-30 22:59 38.77530 -9.13755 361 ft 12 kts 177°